SWA3789 KSJC-KPHX

Flight info

Callsign SWA3789
Flight time 1h 26m
Altitude 39000
Route SPTNS1 JFREE LOSHN BOILE BLH HYDRR1
Aircraft B38M/M-SADE2E3GHIJ4J7P2RWZ/LB1D1

Departure

Time 2026-05-03 22:21
Airport Norman Y. Mineta San Jose International Airport (KSJC)

Arrival

Time 2026-05-03 23:47
Airport Phoenix Sky Harbor International Airport (KPHX)
Time Latitude Longitude Altitude Speed Heading
2026-05-03 22:03 37.36494 -121.92530 75 ft 0 kts 49°
2026-05-03 22:11 37.36484 -121.92544 65 ft 4 kts 50°
2026-05-03 22:11 37.36467 -121.92570 68 ft 3 kts 50°
2026-05-03 22:11 37.36455 -121.92593 66 ft 4 kts 79°
2026-05-03 22:11 37.36461 -121.92619 67 ft 4 kts 135°
2026-05-03 22:12 37.36473 -121.92633 65 ft 1 kts 140°
2026-05-03 22:12 37.36474 -121.92634 65 ft 0 kts 140°
2026-05-03 22:17 37.36472 -121.92632 65 ft 2 kts 140°
2026-05-03 22:18 37.36422 -121.92579 72 ft 17 kts 140°
2026-05-03 22:18 37.36297 -121.92444 67 ft 30 kts 138°
2026-05-03 22:18 37.36127 -121.92259 72 ft 35 kts 140°
2026-05-03 22:18 37.35940 -121.92053 72 ft 36 kts 139°
2026-05-03 22:19 37.35814 -121.91916 65 ft 36 kts 139°
2026-05-03 22:19 37.35556 -121.91637 70 ft 37 kts 138°
2026-05-03 22:19 37.35405 -121.91470 72 ft 19 kts 139°
2026-05-03 22:19 37.35335 -121.91420 64 ft 7 kts 178°
2026-05-03 22:20 37.35313 -121.91435 72 ft 3 kts 231°
2026-05-03 22:20 37.35262 -121.91511 74 ft 19 kts 232°
2026-05-03 22:20 37.35285 -121.91610 75 ft 17 kts 329°
2026-05-03 22:20 37.35428 -121.91754 71 ft 46 kts 320°
2026-05-03 22:21 37.35876 -121.92243 65 ft 122 kts 319°
2026-05-03 22:21 37.36668 -121.93118 118 ft 176 kts 317°
2026-05-03 22:21 37.37650 -121.94151 687 ft 187 kts 318°
2026-05-03 22:21 37.38568 -121.95163 1912 ft 172 kts 315°
2026-05-03 22:22 37.39537 -121.96234 2408 ft 197 kts 315°
2026-05-03 22:22 37.40743 -121.97276 2847 ft 227 kts 339°
2026-05-03 22:22 37.42384 -121.97325 3354 ft 251 kts 19°
2026-05-03 22:22 37.43832 -121.96052 3980 ft 265 kts 56°
2026-05-03 22:23 37.44501 -121.93900 4517 ft 267 kts 88°
2026-05-03 22:23 37.44151 -121.91673 4704 ft 259 kts 122°
2026-05-03 22:23 37.42906 -121.90097 4868 ft 256 kts 149°
2026-05-03 22:23 37.41407 -121.88875 4940 ft 257 kts 145°
2026-05-03 22:24 37.39986 -121.87500 4968 ft 258 kts 142°
2026-05-03 22:24 37.38625 -121.86040 4979 ft 258 kts 139°
2026-05-03 22:24 37.37306 -121.84500 4995 ft 259 kts 137°
2026-05-03 22:24 37.36021 -121.82905 4999 ft 260 kts 136°
2026-05-03 22:25 37.34772 -121.81290 5262 ft 261 kts 135°
2026-05-03 22:25 37.33510 -121.79622 6287 ft 261 kts 134°
2026-05-03 22:25 37.32203 -121.78020 7127 ft 264 kts 140°
2026-05-03 22:25 37.30836 -121.76514 8019 ft 266 kts 140°
2026-05-03 22:26 37.29443 -121.74960 8917 ft 269 kts 140°
2026-05-03 22:26 37.28046 -121.73390 9829 ft 271 kts 140°
2026-05-03 22:26 37.26629 -121.71788 10506 ft 281 kts 140°
2026-05-03 22:26 37.25127 -121.70086 10881 ft 301 kts 140°
2026-05-03 22:27 37.23537 -121.68280 11369 ft 316 kts 140°
2026-05-03 22:27 37.21880 -121.66397 11969 ft 326 kts 140°
2026-05-03 22:27 37.20194 -121.64483 12825 ft 329 kts 140°
2026-05-03 22:27 37.18482 -121.62540 13681 ft 333 kts 140°
2026-05-03 22:28 37.16753 -121.60578 14441 ft 338 kts 140°
2026-05-03 22:28 37.15001 -121.58592 15228 ft 342 kts 140°
2026-05-03 22:28 37.13230 -121.56586 16003 ft 345 kts 140°
2026-05-03 22:28 37.11435 -121.54555 16749 ft 350 kts 140°
2026-05-03 22:29 37.09618 -121.52499 17511 ft 354 kts 140°
2026-05-03 22:29 37.07782 -121.50422 18260 ft 358 kts 140°
2026-05-03 22:29 37.05982 -121.48229 18865 ft 364 kts 134°
2026-05-03 22:29 37.04296 -121.45850 19541 ft 367 kts 134°
2026-05-03 22:30 37.02578 -121.43467 20114 ft 371 kts 135°
2026-05-03 22:30 37.00832 -121.41068 20723 ft 375 kts 135°
2026-05-03 22:30 36.99064 -121.38650 21335 ft 378 kts 135°
2026-05-03 22:30 36.97277 -121.36212 21923 ft 382 kts 135°
2026-05-03 22:31 36.95469 -121.33749 22490 ft 386 kts 135°
2026-05-03 22:31 36.93642 -121.31264 23069 ft 390 kts 135°
2026-05-03 22:31 36.91798 -121.28757 23615 ft 394 kts 135°
2026-05-03 22:31 36.89928 -121.26218 24067 ft 399 kts 135°
2026-05-03 22:32 36.88039 -121.23654 24513 ft 403 kts 135°
2026-05-03 22:32 36.86133 -121.21068 24951 ft 407 kts 135°
2026-05-03 22:32 36.84207 -121.18458 25385 ft 411 kts 135°
2026-05-03 22:32 36.82266 -121.15830 25821 ft 414 kts 135°
2026-05-03 22:33 36.80301 -121.13171 26236 ft 418 kts 136°
2026-05-03 22:33 36.78318 -121.10490 26662 ft 422 kts 136°
2026-05-03 22:33 36.76322 -121.07793 27085 ft 425 kts 136°
2026-05-03 22:33 36.74332 -121.05108 27494 ft 429 kts 136°
2026-05-03 22:34 36.72302 -121.02371 27893 ft 432 kts 136°
2026-05-03 22:34 36.70252 -120.99608 28297 ft 436 kts 136°
2026-05-03 22:34 36.68183 -120.96822 28687 ft 439 kts 136°
2026-05-03 22:34 36.66089 -120.94039 29072 ft 441 kts 140°
2026-05-03 22:35 36.63837 -120.91442 29450 ft 443 kts 141°
2026-05-03 22:35 36.61566 -120.88818 29814 ft 447 kts 141°
2026-05-03 22:35 36.59292 -120.86168 30167 ft 450 kts 141°
2026-05-03 22:35 36.57006 -120.83498 30463 ft 453 kts 142°
2026-05-03 22:36 36.54701 -120.80802 30755 ft 456 kts 142°
2026-05-03 22:36 36.52383 -120.78092 31077 ft 459 kts 142°
2026-05-03 22:36 36.50050 -120.75366 31356 ft 462 kts 142°
2026-05-03 22:36 36.47702 -120.72626 31657 ft 465 kts 142°
2026-05-03 22:37 36.45335 -120.69866 31960 ft 468 kts 143°
2026-05-03 22:37 36.42953 -120.67091 32237 ft 471 kts 143°
2026-05-03 22:37 36.40558 -120.64303 32543 ft 473 kts 143°
2026-05-03 22:37 36.38156 -120.61510 32893 ft 473 kts 143°
2026-05-03 22:38 36.35754 -120.58719 33329 ft 473 kts 143°
2026-05-03 22:38 36.33351 -120.55928 33690 ft 474 kts 143°
2026-05-03 22:38 36.30940 -120.53131 34043 ft 474 kts 143°
2026-05-03 22:38 36.28535 -120.50346 34349 ft 475 kts 144°
2026-05-03 22:39 36.26114 -120.47542 34722 ft 474 kts 143°
2026-05-03 22:39 36.23738 -120.44793 35066 ft 474 kts 144°
2026-05-03 22:39 36.21295 -120.41970 35371 ft 474 kts 144°
2026-05-03 22:39 36.18915 -120.39222 35671 ft 475 kts 144°
2026-05-03 22:40 36.16501 -120.36437 35973 ft 475 kts 144°
2026-05-03 22:40 36.14084 -120.33650 36272 ft 475 kts 144°
2026-05-03 22:40 36.11663 -120.30862 36552 ft 475 kts 144°
2026-05-03 22:40 36.09245 -120.28081 36823 ft 475 kts 144°
2026-05-03 22:41 36.06821 -120.25293 37100 ft 476 kts 144°
2026-05-03 22:41 36.04396 -120.22509 37382 ft 475 kts 144°
2026-05-03 22:41 36.01973 -120.19728 37638 ft 475 kts 144°
2026-05-03 22:41 35.99551 -120.16951 37869 ft 476 kts 144°
2026-05-03 22:42 35.97121 -120.14167 38117 ft 476 kts 144°
2026-05-03 22:42 35.94695 -120.11390 38348 ft 476 kts 144°
2026-05-03 22:42 35.92262 -120.08608 38579 ft 477 kts 144°
2026-05-03 22:42 35.89830 -120.05827 38752 ft 477 kts 144°
2026-05-03 22:43 35.87395 -120.03047 38901 ft 477 kts 144°
2026-05-03 22:43 35.82747 -119.97136 38954 ft 483 kts 138°
2026-05-03 22:44 35.78332 -119.90888 38933 ft 484 kts 138°
2026-05-03 22:44 35.73926 -119.84629 38929 ft 484 kts 138°
2026-05-03 22:45 35.69513 -119.78368 38928 ft 484 kts 138°
2026-05-03 22:45 35.65087 -119.72102 38926 ft 485 kts 138°
2026-05-03 22:46 35.60659 -119.65844 38922 ft 485 kts 138°
2026-05-03 22:46 35.56228 -119.59593 38916 ft 485 kts 138°
2026-05-03 22:47 35.51789 -119.53341 38917 ft 486 kts 138°
2026-05-03 22:47 35.47348 -119.47099 38908 ft 486 kts 138°
2026-05-03 22:48 35.42902 -119.40861 38898 ft 486 kts 138°
2026-05-03 22:48 35.38449 -119.34625 38893 ft 486 kts 138°
2026-05-03 22:49 35.34020 -119.28435 38899 ft 486 kts 138°
2026-05-03 22:49 35.29558 -119.22209 38897 ft 486 kts 138°
2026-05-03 22:50 35.25096 -119.15992 38899 ft 486 kts 138°
2026-05-03 22:50 35.20629 -119.09782 38898 ft 486 kts 138°
2026-05-03 22:51 35.16883 -119.04583 38898 ft 486 kts 138°
2026-05-03 22:51 35.12415 -118.98392 38904 ft 486 kts 138°
2026-05-03 22:52 35.08017 -118.92307 38908 ft 486 kts 138°
2026-05-03 22:52 35.03539 -118.86125 38905 ft 486 kts 138°
2026-05-03 22:53 34.99051 -118.79939 38912 ft 487 kts 138°
2026-05-03 22:53 34.94565 -118.73768 38924 ft 487 kts 138°
2026-05-03 22:54 34.90068 -118.67591 38926 ft 487 kts 138°
2026-05-03 22:54 34.85599 -118.61465 38937 ft 487 kts 138°
2026-05-03 22:55 34.81096 -118.55302 38932 ft 487 kts 138°
2026-05-03 22:55 34.76586 -118.49142 38941 ft 488 kts 138°
2026-05-03 22:56 34.72065 -118.42977 38944 ft 488 kts 138°
2026-05-03 22:56 34.67542 -118.36820 38952 ft 489 kts 137°
2026-05-03 22:57 34.63011 -118.30664 38945 ft 488 kts 138°
2026-05-03 22:57 34.58478 -118.24516 38920 ft 489 kts 138°
2026-05-03 22:58 34.53932 -118.18358 38926 ft 490 kts 137°
2026-05-03 22:58 34.49383 -118.12208 38912 ft 490 kts 138°
2026-05-03 22:59 34.44821 -118.06048 38912 ft 491 kts 137°
2026-05-03 22:59 34.42796 -118.02692 38896 ft 499 kts 122°
2026-05-03 22:59 34.41464 -117.98785 38914 ft 506 kts 110°
2026-05-03 23:00 34.39426 -117.90650 38912 ft 509 kts 109°
2026-05-03 23:00 34.37441 -117.82444 38913 ft 506 kts 109°
2026-05-03 23:01 34.35478 -117.74259 38935 ft 507 kts 109°
2026-05-03 23:01 34.33506 -117.66067 38944 ft 508 kts 109°
2026-05-03 23:02 34.31526 -117.57859 38943 ft 509 kts 109°
2026-05-03 23:02 34.29534 -117.49638 38946 ft 509 kts 109°
2026-05-03 23:03 34.27540 -117.41426 38946 ft 509 kts 109°
2026-05-03 23:03 34.25541 -117.33224 38959 ft 508 kts 109°
2026-05-03 23:04 34.23536 -117.25025 38967 ft 509 kts 109°
2026-05-03 23:04 34.21526 -117.16832 38957 ft 508 kts 109°
2026-05-03 23:05 34.19511 -117.08643 38951 ft 508 kts 109°
2026-05-03 23:05 34.17490 -117.00456 38934 ft 509 kts 109°
2026-05-03 23:06 34.15460 -116.92259 38916 ft 509 kts 109°
2026-05-03 23:06 34.13427 -116.84075 38896 ft 509 kts 109°
2026-05-03 23:07 34.11387 -116.75890 38874 ft 509 kts 109°
2026-05-03 23:07 34.09340 -116.67702 38854 ft 510 kts 109°
2026-05-03 23:08 34.07285 -116.59504 38828 ft 511 kts 110°
2026-05-03 23:08 34.05219 -116.51293 38814 ft 512 kts 110°
2026-05-03 23:09 34.03146 -116.43080 38814 ft 512 kts 110°
2026-05-03 23:09 34.01067 -116.34866 38799 ft 513 kts 110°
2026-05-03 23:10 33.98992 -116.26695 38783 ft 513 kts 109°
2026-05-03 23:10 33.96897 -116.18471 38786 ft 514 kts 110°
2026-05-03 23:11 33.94797 -116.10248 38767 ft 514 kts 110°
2026-05-03 23:11 33.92686 -116.02013 38778 ft 515 kts 110°
2026-05-03 23:12 33.90571 -115.93788 38767 ft 515 kts 110°
2026-05-03 23:12 33.88442 -115.85529 38778 ft 517 kts 110°
2026-05-03 23:13 33.86304 -115.77270 38771 ft 516 kts 110°
2026-05-03 23:13 33.84164 -115.69020 38772 ft 517 kts 110°
2026-05-03 23:14 33.82014 -115.60758 38769 ft 518 kts 110°
2026-05-03 23:14 33.79855 -115.52486 38772 ft 519 kts 111°
2026-05-03 23:15 33.77685 -115.44200 38574 ft 519 kts 110°
2026-05-03 23:15 33.76599 -115.40064 38473 ft 519 kts 110°
2026-05-03 23:15 33.75513 -115.35931 38343 ft 519 kts 110°
2026-05-03 23:15 33.74424 -115.31795 38185 ft 519 kts 110°
2026-05-03 23:16 33.73334 -115.27665 38039 ft 519 kts 111°
2026-05-03 23:16 33.72241 -115.23526 37873 ft 519 kts 111°
2026-05-03 23:16 33.71148 -115.19391 37705 ft 519 kts 111°
2026-05-03 23:16 33.70056 -115.15268 37564 ft 519 kts 111°
2026-05-03 23:17 33.68957 -115.11124 37390 ft 520 kts 111°
2026-05-03 23:17 33.67860 -115.06995 37241 ft 520 kts 111°
2026-05-03 23:17 33.66758 -115.02851 37089 ft 520 kts 111°
2026-05-03 23:17 33.65657 -114.98704 36760 ft 526 kts 114°
2026-05-03 23:18 33.64529 -114.94485 36676 ft 535 kts 114°
2026-05-03 23:18 33.62227 -114.85871 36644 ft 550 kts 113°
2026-05-03 23:19 33.59893 -114.77089 36279 ft 548 kts 110°
2026-05-03 23:19 33.58968 -114.72675 35834 ft 544 kts 108°
2026-05-03 23:19 33.58094 -114.68277 35356 ft 539 kts 108°
2026-05-03 23:19 33.57234 -114.63880 34461 ft 545 kts 108°
2026-05-03 23:20 33.56363 -114.59403 33271 ft 557 kts 107°
2026-05-03 23:20 33.55475 -114.54845 32149 ft 565 kts 107°
2026-05-03 23:20 33.54595 -114.50340 31548 ft 559 kts 107°
2026-05-03 23:20 33.53710 -114.45817 30778 ft 557 kts 107°
2026-05-03 23:21 33.52824 -114.41298 29920 ft 557 kts 107°
2026-05-03 23:21 33.51942 -114.36808 29151 ft 552 kts 107°
2026-05-03 23:21 33.51063 -114.32344 28280 ft 550 kts 107°
2026-05-03 23:21 33.50187 -114.27905 27554 ft 545 kts 107°
2026-05-03 23:22 33.48457 -114.19164 26108 ft 535 kts 107°
2026-05-03 23:22 33.47600 -114.14849 25392 ft 531 kts 107°
2026-05-03 23:22 33.46754 -114.10588 24914 ft 518 kts 107°
2026-05-03 23:23 33.45934 -114.06484 24698 ft 497 kts 107°
2026-05-03 23:23 33.45141 -114.02530 24513 ft 479 kts 107°
2026-05-03 23:23 33.44376 -113.98716 24330 ft 466 kts 107°
2026-05-03 23:23 33.43620 -113.94950 24162 ft 464 kts 107°
2026-05-03 23:24 33.42868 -113.91199 24002 ft 462 kts 108°
2026-05-03 23:24 33.42120 -113.87470 23854 ft 460 kts 108°
2026-05-03 23:24 33.41373 -113.83761 23710 ft 458 kts 108°
2026-05-03 23:24 33.40628 -113.80061 23563 ft 456 kts 108°
2026-05-03 23:25 33.39885 -113.76379 23387 ft 454 kts 108°
2026-05-03 23:25 33.39144 -113.72712 23197 ft 452 kts 107°
2026-05-03 23:25 33.38405 -113.69063 23042 ft 451 kts 108°
2026-05-03 23:25 33.37675 -113.65459 22889 ft 440 kts 108°
2026-05-03 23:26 33.36962 -113.61952 22784 ft 428 kts 108°
2026-05-03 23:26 33.36266 -113.58531 22674 ft 422 kts 108°
2026-05-03 23:26 33.35559 -113.55061 22493 ft 435 kts 107°
2026-05-03 23:26 33.34839 -113.51531 22342 ft 440 kts 108°
2026-05-03 23:27 33.34111 -113.47963 22194 ft 442 kts 108°
2026-05-03 23:27 33.33461 -113.44373 22055 ft 442 kts 105°
2026-05-03 23:27 33.32846 -113.40777 21904 ft 441 kts 105°
2026-05-03 23:27 33.32223 -113.37197 21765 ft 440 kts 105°
2026-05-03 23:28 33.31597 -113.33619 21632 ft 439 kts 105°
2026-05-03 23:28 33.30972 -113.30057 21512 ft 438 kts 105°
2026-05-03 23:28 33.30347 -113.26507 21374 ft 437 kts 105°
2026-05-03 23:28 33.29749 -113.22953 20941 ft 435 kts 103°
2026-05-03 23:29 33.29242 -113.19386 20395 ft 435 kts 103°
2026-05-03 23:29 33.28730 -113.15846 19957 ft 431 kts 103°
2026-05-03 23:29 33.28217 -113.12342 19660 ft 424 kts 103°
2026-05-03 23:29 33.27713 -113.08915 19485 ft 413 kts 104°
2026-05-03 23:30 33.27426 -113.05515 19093 ft 414 kts 91°
2026-05-03 23:30 33.27547 -113.02096 18816 ft 408 kts 90°
2026-05-03 23:30 33.27639 -112.98758 18787 ft 398 kts 91°
2026-05-03 23:30 33.27724 -112.95459 18772 ft 396 kts 91°
2026-05-03 23:31 33.27807 -112.92109 17823 ft 411 kts 91°
2026-05-03 23:31 33.27892 -112.88668 17148 ft 415 kts 91°
2026-05-03 23:31 33.27975 -112.85267 17001 ft 403 kts 91°
2026-05-03 23:31 33.28080 -112.81977 16871 ft 393 kts 87°
2026-05-03 23:32 33.28411 -112.78749 16571 ft 388 kts 85°
2026-05-03 23:32 33.28731 -112.75563 16263 ft 384 kts 86°
2026-05-03 23:32 33.29032 -112.72420 15928 ft 380 kts 86°
2026-05-03 23:32 33.29325 -112.69289 15582 ft 378 kts 86°
2026-05-03 23:33 33.29611 -112.66182 15247 ft 374 kts 86°
2026-05-03 23:33 33.29893 -112.63103 14900 ft 371 kts 86°
2026-05-03 23:33 33.30171 -112.60056 14563 ft 367 kts 86°
2026-05-03 23:33 33.30446 -112.57037 14230 ft 364 kts 86°
2026-05-03 23:34 33.30719 -112.54034 13893 ft 361 kts 87°
2026-05-03 23:34 33.30988 -112.51060 13546 ft 358 kts 87°
2026-05-03 23:34 33.31254 -112.48107 13189 ft 355 kts 87°
2026-05-03 23:34 33.31517 -112.45188 12861 ft 352 kts 87°
2026-05-03 23:35 33.31777 -112.42300 12538 ft 348 kts 87°
2026-05-03 23:35 33.32032 -112.39451 12224 ft 344 kts 87°
2026-05-03 23:35 33.32282 -112.36662 11917 ft 340 kts 87°
2026-05-03 23:35 33.32538 -112.33858 11573 ft 338 kts 87°
2026-05-03 23:36 33.32791 -112.31085 11268 ft 332 kts 87°
2026-05-03 23:36 33.33038 -112.28385 10990 ft 323 kts 88°
2026-05-03 23:36 33.33278 -112.25749 10708 ft 316 kts 88°
2026-05-03 23:36 33.33513 -112.23160 10409 ft 309 kts 88°
2026-05-03 23:37 33.33742 -112.20624 10128 ft 303 kts 88°
2026-05-03 23:37 33.33966 -112.18144 9839 ft 298 kts 88°
2026-05-03 23:37 33.34195 -112.15709 9554 ft 292 kts 87°
2026-05-03 23:37 33.34346 -112.14089 9356 ft 288 kts 88°
2026-05-03 23:38 33.34553 -112.11683 8743 ft 295 kts 88°
2026-05-03 23:38 33.34757 -112.09246 8275 ft 293 kts 91°
2026-05-03 23:38 33.34738 -112.06821 7802 ft 292 kts 95°
2026-05-03 23:38 33.34688 -112.04392 7341 ft 292 kts 95°
2026-05-03 23:39 33.34651 -112.01992 7114 ft 283 kts 95°
2026-05-03 23:39 33.34624 -111.99720 6967 ft 265 kts 95°
2026-05-03 23:39 33.34601 -111.97563 6692 ft 254 kts 95°
2026-05-03 23:39 33.34582 -111.95488 6432 ft 245 kts 95°
2026-05-03 23:40 33.34569 -111.93460 6013 ft 245 kts 94°
2026-05-03 23:40 33.34597 -111.91456 5680 ft 243 kts 93°
2026-05-03 23:40 33.34637 -111.89413 5271 ft 243 kts 93°
2026-05-03 23:40 33.34675 -111.87427 4857 ft 240 kts 92°
2026-05-03 23:41 33.34713 -111.85434 4320 ft 239 kts 93°
2026-05-03 23:41 33.34751 -111.83444 3779 ft 242 kts 92°
2026-05-03 23:41 33.34794 -111.81442 3472 ft 237 kts 91°
2026-05-03 23:41 33.35253 -111.79559 3126 ft 239 kts 60°
2026-05-03 23:42 33.36447 -111.78272 2995 ft 221 kts 24°
2026-05-03 23:42 33.37908 -111.77910 3057 ft 216 kts
2026-05-03 23:42 33.39407 -111.77818 3090 ft 214 kts 360°
2026-05-03 23:42 33.40887 -111.77761 3082 ft 212 kts 355°
2026-05-03 23:43 33.42229 -111.78280 3001 ft 200 kts 318°
2026-05-03 23:43 33.42992 -111.79573 3000 ft 187 kts 280°
2026-05-03 23:43 33.43195 -111.81101 3046 ft 185 kts 270°
2026-05-03 23:43 33.43293 -111.82618 3024 ft 179 kts 266°
2026-05-03 23:44 33.43295 -111.84073 3059 ft 171 kts 261°
2026-05-03 23:44 33.43149 -111.85480 3119 ft 169 kts 252°
2026-05-03 23:44 33.42944 -111.86874 3067 ft 171 kts 259°
2026-05-03 23:44 33.42925 -111.88311 2996 ft 174 kts 265°
2026-05-03 23:45 33.42966 -111.89765 2925 ft 175 kts 266°
2026-05-03 23:45 33.42974 -111.91206 2889 ft 170 kts 260°
2026-05-03 23:45 33.42915 -111.92620 2819 ft 172 kts 263°
2026-05-03 23:45 33.42960 -111.94063 2561 ft 175 kts 268°
2026-05-03 23:46 33.42973 -111.95390 2282 ft 159 kts 262°
2026-05-03 23:46 33.42892 -111.96679 2099 ft 155 kts 260°
2026-05-03 23:46 33.42891 -111.97981 1910 ft 157 kts 267°
2026-05-03 23:46 33.42883 -111.99248 1447 ft 156 kts 265°
2026-05-03 23:47 33.42898 -112.00564 1139 ft 151 kts 263°
2026-05-03 23:47 33.42884 -112.01546 1128 ft 80 kts 270°
2026-05-03 23:47 33.42888 -112.01974 1126 ft 37 kts 271°
2026-05-03 23:47 33.42965 -112.02150 1120 ft 10 kts 12°
2026-05-03 23:48 33.42996 -112.02110 1118 ft 4 kts 82°
2026-05-03 23:48 33.42996 -112.02061 1120 ft 13 kts 90°
2026-05-03 23:48 33.42994 -112.01882 1125 ft 27 kts 91°
2026-05-03 23:48 33.42995 -112.01738 1123 ft 0 kts 89°
2026-05-03 23:49 33.42995 -112.01726 1125 ft 3 kts 89°
2026-05-03 23:49 33.42995 -112.01716 1123 ft 0 kts 89°
2026-05-03 23:50 33.42995 -112.01712 1123 ft 3 kts 89°
2026-05-03 23:50 33.43012 -112.01631 1122 ft 17 kts 62°
2026-05-03 23:50 33.43137 -112.01570 1123 ft 22 kts
2026-05-03 23:51 33.43214 -112.01491 1124 ft 15 kts 83°
2026-05-03 23:51 33.43214 -112.01356 1119 ft 18 kts 91°
2026-05-03 23:51 33.43213 -112.01203 1122 ft 20 kts 89°
2026-05-03 23:51 33.43214 -112.01030 1126 ft 22 kts 90°
2026-05-03 23:52 33.43213 -112.00837 1120 ft 24 kts 90°
2026-05-03 23:52 33.43213 -112.00638 1124 ft 26 kts 89°
2026-05-03 23:52 33.43214 -112.00417 1120 ft 28 kts 90°
2026-05-03 23:52 33.43214 -112.00199 1120 ft 21 kts 89°
2026-05-03 23:53 33.43249 -112.00040 1120 ft 22 kts 39°
2026-05-03 23:53 33.43283 -111.99887 1126 ft 21 kts 90°
2026-05-03 23:53 33.43282 -111.99700 1123 ft 24 kts 90°
2026-05-03 23:53 33.43318 -111.99577 1126 ft 11 kts 15°
2026-05-03 23:54 33.43381 -111.99585 1124 ft 8 kts 324°
2026-05-03 23:54 33.43397 -111.99606 1116 ft 2 kts 304°
2026-05-03 23:54 33.43405 -111.99624 1121 ft 0 kts 295°